TimeCDT,TemperatureF,Dew PointF,Humidity,Sea Level PressureIn,VisibilityMPH,Wind Direction,Wind SpeedMPH,Gust SpeedMPH,PrecipitationIn,Events,Conditions,WindDirDegrees,DateUTC
12:15 AM,74.5,72.0,92,29.85,7.0,Calm,Calm,-,N/A,,Clear,0,2013-07-22 05:15:00
12:35 AM,73.8,71.6,93,29.84,7.0,South,3.5,-,N/A,,Clear,170,2013-07-22 05:35:00
12:55 AM,73.6,71.2,92,29.85,7.0,SSW,3.5,-,N/A,,Clear,200,2013-07-22 05:55:00
1:15 AM,73.8,71.4,92,29.85,7.0,Calm,Calm,-,N/A,,Mostly Cloudy,0,2013-07-22 06:15:00
1:35 AM,73.6,71.4,93,29.85,7.0,Calm,Calm,-,0.01,,Overcast,0,2013-07-22 06:35:00
1:55 AM,73.8,71.6,93,29.85,7.0,SSW,3.5,-,0.01,,Overcast,200,2013-07-22 06:55:00
2:15 AM,73.9,71.6,92,29.85,7.0,SW,3.5,-,N/A,,Overcast,230,2013-07-22 07:15:00
2:35 AM,73.9,71.6,92,29.84,7.0,Calm,Calm,-,N/A,,Overcast,0,2013-07-22 07:35:00
2:55 AM,74.1,71.6,92,29.84,7.0,Calm,Calm,-,N/A,,Overcast,0,2013-07-22 07:55:00
3:15 AM,74.3,71.6,91,29.84,7.0,Calm,Calm,-,N/A,,Overcast,0,2013-07-22 08:15:00
3:35 AM,73.9,71.6,92,29.84,7.0,SW,3.5,-,N/A,,Overcast,220,2013-07-22 08:35:00
3:55 AM,74.3,71.8,92,29.83,7.0,Calm,Calm,-,N/A,,Overcast,0,2013-07-22 08:55:00
4:15 AM,74.3,71.8,92,29.83,7.0,Calm,Calm,-,N/A,,Overcast,0,2013-07-22 09:15:00
4:35 AM,74.3,71.8,92,29.83,7.0,Calm,Calm,-,N/A,,Overcast,0,2013-07-22 09:35:00
4:55 AM,74.3,71.8,92,29.84,7.0,West,3.5,-,N/A,,Overcast,270,2013-07-22 09:55:00
5:15 AM,74.3,71.8,92,29.84,5.0,Calm,Calm,-,N/A,,Overcast,0,2013-07-22 10:15:00
5:35 AM,74.3,71.8,92,29.84,5.0,Calm,Calm,-,N/A,,Overcast,0,2013-07-22 10:35:00
5:55 AM,74.3,71.6,91,29.84,5.0,Calm,Calm,-,N/A,,Overcast,0,2013-07-22 10:55:00
6:15 AM,74.3,71.8,92,29.84,2.5,Calm,Calm,-,N/A,,Mostly Cloudy,0,2013-07-22 11:15:00
6:35 AM,74.1,71.6,92,29.84,2.0,Calm,Calm,-,N/A,,Mostly Cloudy,0,2013-07-22 11:35:00
6:55 AM,74.5,72.3,93,29.85,2.5,Calm,Calm,-,N/A,,Mostly Cloudy,0,2013-07-22 11:55:00
7:15 AM,75.2,72.9,92,29.85,3.0,WSW,4.6,-,N/A,,Overcast,240,2013-07-22 12:15:00
7:35 AM,75.6,72.7,91,29.86,4.0,WSW,4.6,-,N/A,,Overcast,240,2013-07-22 12:35:00
7:55 AM,76.1,72.7,89,29.87,5.0,WSW,4.6,-,N/A,,Mostly Cloudy,240,2013-07-22 12:55:00
8:35 AM,77.5,72.3,84,29.87,7.0,WSW,5.8,-,N/A,,Mostly Cloudy,250,2013-07-22 13:35:00
9:35 AM,80.1,72.5,78,29.87,10.0,West,6.9,-,N/A,,Scattered Clouds,260,2013-07-22 14:35:00
9:55 AM,81.9,72.3,73,29.87,10.0,West,5.8,-,N/A,,Clear,280,2013-07-22 14:55:00
10:15 AM,82.9,71.2,68,29.87,10.0,West,8.1,-,N/A,,Clear,270,2013-07-22 15:15:00
10:35 AM,83.3,71.1,66,29.87,10.0,WNW,5.8,-,N/A,,Clear,290,2013-07-22 15:35:00
10:55 AM,84.2,71.8,66,29.87,10.0,West,6.9,-,N/A,,Scattered Clouds,280,2013-07-22 15:55:00
11:15 AM,84.6,71.2,64,29.87,10.0,West,8.1,-,N/A,,Clear,270,2013-07-22 16:15:00
11:35 AM,84.9,71.1,63,29.87,10.0,WNW,5.8,-,N/A,,Scattered Clouds,290,2013-07-22 16:35:00
11:55 AM,84.9,71.1,63,29.87,10.0,WNW,6.9,-,N/A,,Scattered Clouds,300,2013-07-22 16:55:00
12:15 PM,85.5,71.4,63,29.87,10.0,West,5.8,-,N/A,,Scattered Clouds,270,2013-07-22 17:15:00
12:35 PM,86.5,71.2,60,29.87,10.0,WNW,4.6,-,N/A,,Scattered Clouds,300,2013-07-22 17:35:00
12:55 PM,86.5,70.5,59,29.87,10.0,WNW,5.8,-,N/A,,Scattered Clouds,300,2013-07-22 17:55:00
1:15 PM,87.1,71.2,59,29.86,10.0,SW,5.8,-,N/A,,Scattered Clouds,220,2013-07-22 18:15:00
1:35 PM,87.3,71.2,59,29.85,10.0,West,4.6,-,N/A,,Scattered Clouds,280,2013-07-22 18:35:00
1:55 PM,88.3,72.3,59,29.85,10.0,West,5.8,-,N/A,,Scattered Clouds,270,2013-07-22 18:55:00
2:15 PM,88.3,71.4,57,29.85,10.0,West,5.8,-,N/A,,Scattered Clouds,280,2013-07-22 19:15:00
2:35 PM,88.9,70.5,54,29.85,10.0,West,4.6,-,N/A,,Scattered Clouds,260,2013-07-22 19:35:00
2:55 PM,89.1,71.8,57,29.85,10.0,SW,6.9,-,N/A,,Clear,230,2013-07-22 19:55:00
3:15 PM,87.6,71.8,59,29.85,10.0,SW,6.9,-,N/A,,Scattered Clouds,230,2013-07-22 20:15:00
3:35 PM,89.8,71.6,55,29.85,10.0,West,9.2,-,N/A,,Scattered Clouds,280,2013-07-22 20:35:00
3:55 PM,89.8,72.7,57,29.84,10.0,West,11.5,-,N/A,,Clear,270,2013-07-22 20:55:00
4:15 PM,89.2,71.8,56,29.84,10.0,WSW,9.2,-,N/A,,Clear,240,2013-07-22 21:15:00
4:35 PM,89.4,72.5,57,29.84,10.0,WSW,9.2,-,N/A,,Clear,240,2013-07-22 21:35:00
4:55 PM,89.1,71.6,56,29.84,10.0,West,8.1,-,N/A,,Clear,260,2013-07-22 21:55:00
5:15 PM,89.2,71.6,56,29.83,10.0,West,6.9,-,N/A,,Clear,260,2013-07-22 22:15:00
5:35 PM,89.1,71.8,57,29.83,10.0,WSW,6.9,-,N/A,,Clear,250,2013-07-22 22:35:00
5:55 PM,89.2,72.1,57,29.82,10.0,WSW,5.8,-,N/A,,Clear,250,2013-07-22 22:55:00
6:15 PM,88.9,72.1,58,29.81,10.0,West,3.5,-,N/A,,Clear,280,2013-07-22 23:15:00
6:35 PM,88.7,72.5,59,29.80,10.0,WSW,4.6,-,N/A,,Clear,240,2013-07-22 23:35:00
6:55 PM,88.0,72.1,59,29.81,10.0,West,3.5,-,N/A,,Clear,260,2013-07-22 23:55:00
7:15 PM,87.8,73.0,61,29.80,10.0,Calm,Calm,-,N/A,,Clear,0,2013-07-23 00:15:00
7:35 PM,86.9,73.4,64,29.81,10.0,Calm,Calm,-,N/A,,Clear,0,2013-07-23 00:35:00
7:55 PM,83.8,76.3,78,29.82,10.0,Calm,Calm,-,N/A,,Clear,0,2013-07-23 00:55:00
8:15 PM,81.5,76.5,85,29.81,7.0,SSE,3.5,-,N/A,,Clear,160,2013-07-23 01:15:00
8:35 PM,80.8,76.1,86,29.83,10.0,SSE,4.6,-,N/A,,Clear,150,2013-07-23 01:35:00
8:55 PM,80.4,75.9,86,29.83,10.0,Calm,Calm,-,N/A,,Clear,0,2013-07-23 01:55:00
9:15 PM,81.5,75.6,82,29.83,10.0,Calm,Calm,-,N/A,,Mostly Cloudy,0,2013-07-23 02:15:00
9:35 PM,80.6,75.2,84,29.84,10.0,Calm,Calm,-,N/A,,Scattered Clouds,0,2013-07-23 02:35:00
9:55 PM,80.6,75.2,84,29.85,10.0,Calm,Calm,-,N/A,,Scattered Clouds,0,2013-07-23 02:55:00
10:15 PM,79.7,75.2,86,29.85,7.0,SE,4.6,-,N/A,,Clear,130,2013-07-23 03:15:00
10:35 PM,80.6,75.0,83,29.85,10.0,SSE,5.8,-,N/A,Thunderstorm,Thunderstorm,160,2013-07-23 03:35:00
10:55 PM,81.5,74.7,80,29.85,10.0,SE,3.5,-,N/A,,Overcast,130,2013-07-23 03:55:00
11:15 PM,81.5,74.7,80,29.85,7.0,SSW,4.6,-,0.02,Rain-Thunderstorm,Heavy Thunderstorms and Rain,200,2013-07-23 04:15:00
11:35 PM,79.7,75.4,87,29.87,7.0,Calm,Calm,-,0.04,Rain-Thunderstorm,Rain,0,2013-07-23 04:35:00
11:55 PM,79.0,75.4,89,29.85,7.0,SSE,6.9,17.3,0.15,Rain-Thunderstorm,Light Thunderstorms and Rain,160,2013-07-23 04:55:00